Wind_Speed
40 41 42 43 44 45 46 46 45 45 45 46 46 46 46 45 45 44 45 46 47 48 49 51 52 53 54 55 56 56 56 57 57 58 59 59 60 60 60 60 62 63 64
40 41 41 43 43 44 45 46 45 45 45 46 45 45 45 46 46 46 47 49 50 51 52 53 54 54 55 55 55 55 55 55 55 55 56 56 56 56 56 56 57 58 57
39 40 40 40 41 42 42 42 43 43 44 44 44 45 45 46 46 46 48 49 51 52 52 52 52 52 52 52 52 51 52 52 52 51 51 51 51 51 51 50 49 48 48
39 39 39 40 40 40 40 40 40 41 41 42 42 43 44 45 46 46 48 49 50 50 49 49 49 49 49 49 49 48 48 47 46 46 46 46 46 46 44 43 42 42 41
36 36 37 38 38 38 38 38 38 38 39 40 41 42 43 44 44 45 46 46 46 46 46 46 45 45 45 44 44 43 42 42 42 41 41 41 39 38 38 37 37 36 36
33 33 34 34 34 34 34 35 36 37 37 38 39 40 41 42 42 42 43 43 42 42 41 41 41 40 39 38 37 37 37 36 36 35 35 34 34 34 33 32 31 30 30
30 30 30 30 31 32 33 33 34 35 35 36 37 37 37 37 37 38 38 38 37 37 37 37 36 35 34 33 32 31 30 30 30 29 29 29 29 29 27 27 26 26 26
27 27 27 28 30 31 32 32 33 33 34 34 34 33 34 34 34 34 34 34 35 35 34 33 32 30 29 28 27 26 26 26 25 25 25 25 24 24 24 24 23 23 23
25 26 26 27 28 29 29 30 30 30 30 30 31 31 31 31 31 32 32 32 31 30 29 27 26 25 24 23 22 22 22 21 21 20 20 20 20 20 20 20 20 20 20
24 24 25 25 26 26 26 27 28 28 28 28 28 28 28 28 29 29 28 28 26 25 24 23 23 22 21 19 19 19 18 18 18 17 17 17 18 18 17 17 17 18 18
22 22 23 23 24 24 24 25 26 26 26 26 26 26 26 26 25 24 24 23 22 22 21 20 19 18 18 17 17 16 16 15 15 15 15 15 15 15 15 15 16 16 16
20 20 21 21 22 22 23 23 23 23 23 23 23 23 23 22 21 21 20 20 20 19 18 17 16 15 15 14 14 14 13 13 13 13 14 14 14 14 14 15 15 15 15
18 19 20 20 20 21 21 21 21 21 21 21 21 20 19 18 18 17 17 16 15 14 14 13 13 13 13 13 13 12 12 13 13 12 13 13 14 14 14 14 15 15 14
17 17 18 19 19 19 19 19 19 19 18 18 17 17 16 15 14 14 13 13 12 11 11 12 12 12 12 12 12 12 12 12 12 13 13 13 14 14 14 14 14 14 14
15 16 16 16 16 16 17 17 17 16 15 15 14 13 12 12 11 11 11 10 10 10 10 11 11 11 11 11 11 12 12 12 12 13 13 14 14 14 14 14 13 13 13
14 14 14 14 14 14 14 14 14 13 12 11 11 10 9 9 9 9 9 9 9 9 10 11 11 11 11 11 12 12 12 12 13 13 13 14 14 13 13 13 13 13 13
12 12 12 12 12 12 12 11 11 10 9 9 8 7 7 7 8 8 8 8 9 9 9 10 10 11 11 12 12 13 13 13 13 13 13 13 13 12 12 12 13 13 13
10 10 10 10 10 9 9 9 8 8 7 6 5 6 6 7 7 7 7 8 8 9 9 9 10 11 11 12 12 12 13 13 13 13 13 13 12 12 12 12 12 12 12
8 8 8 8 8 7 7 7 7 6 5 5 5 6 6 7 7 7 7 8 8 8 8 9 10 11 11 12 12 12 12 13 13 12 13 13 12 12 12 11 12 12 13
7 7 7 7 7 7 6 6 6 5 5 5 5 6 6 6 7 7 8 8 8 8 9 9 10 11 11 12 12 12 12 13 13 13 12 13 12 12 12 12 12 12 12
6 6 6 6 6 6 6 6 5 5 5 5 5 6 6 6 7 8 8 8 8 9 9 10 10 11 11 11 12 12 12 13 13 13 13 13 13 12 12 12 12 12 12
6 6 6 6 6 6 6 5 5 5 5 6 6 6 6 6 7 7 8 8 9 10 10 11 11 11 12 12 12 13 13 13 13 13 13 13 13 13 13 13 12 13 13
6 6 6 7 6 6 6 6 6 6 6 6 6 6 6 7 7 7 8 8 9 10 10 11 11 11 12 13 13 13 13 13 12 13 13 13 13 13 13 13 13 13 13
6 7 7 7 7 7 7 7 6 6 6 6 6 6 7 7 7 7 8 9 9 10 10 11 11 12 12 13 13 13 13 13 13 13 13 13 13 14 14 14 14 14 14
7 7 7 7 7 7 7 7 7 7 7 7 7 7 7 7 7 8 8 9 9 10 11 11 12 12 13 13 13 14 13 13 13 13 13 13 14 14 14 15 15 15 15
9 8 8 8 7 7 7 7 7 7 7 7 7 7 8 8 8 8 9 9 10 10 11 12 12 13 14 14 14 14 14 14 14 14 14 14 14 15 15 16 16 16 17
Wind_Direction
274 276 277 277 278 279 281 282 282 282 283 283 284 284 283 283 283 283 284 285 285 285 284 285 284 284 283 283 284 284 284 283 282 282 282 281 281 281 281 281 280 280 279
274 275 276 277 278 278 278 279 278 279 279 280 281 281 282 284 284 284 286 286 287 286 286 286 286 286 285 285 285 285 285 285 284 283 283 283 283 283 283 283 283 282 282
273 274 276 277 277 277 277 277 278 279 279 280 281 282 284 285 285 286 286 287 288 288 288 288 288 288 288 287 287 287 287 287 286 285 285 285 285 285 285 284 284 283 283
273 274 275 277 277 277 276 277 278 278 279 280 283 285 286 287 287 288 289 290 291 291 291 292 291 291 290 289 289 288 288 288 287 287 286 286 286 286 286 286 286 287 286
273 273 275 276 276 277 278 278 280 280 281 284 286 287 287 289 290 291 293 294 294 294 295 295 295 294 293 292 291 290 290 289 288 287 287 288 288 289 289 290 290 290 289
272 273 275 276 276 278 280 282 283 285 287 288 290 290 291 292 293 295 296 297 298 299 300 300 299 298 297 296 294 293 293 293 292 291 291 291 292 292 292 293 293 293 293
273 273 275 277 279 282 283 283 284 287 288 291 292 293 293 295 295 297 298 299 301 302 303 303 303 302 301 299 298 298 297 297 296 296 295 296 296 296 297 298 298 297 297
275 276 276 278 281 283 284 286 288 290 291 292 293 295 297 298 300 302 303 305 305 306 306 305 305 305 304 304 303 302 302 302 302 301 300 300 300 301 302 302 303 303 303
280 280 281 284 286 288 289 291 292 293 294 295 297 299 301 303 304 306 308 309 309 310 310 310 310 310 311 311 310 310 310 309 308 307 306 307 307 307 307 307 308 308 309
284 286 287 288 289 290 292 292 293 295 296 298 299 302 304 305 307 309 310 312 312 313 314 315 315 316 318 319 319 319 318 318 318 318 316 315 315 316 317 318 318 317 317
286 288 290 292 293 293 294 295 296 297 298 299 301 304 306 308 309 310 313 315 316 318 319 319 320 322 324 325 326 326 327 329 330 330 330 329 329 329 329 329 328 328 328
288 291 294 296 297 299 299 299 299 299 300 301 303 305 308 310 311 313 315 317 320 322 324 326 329 331 334 336 337 339 341 343 343 342 343 344 343 341 340 339 339 338 337
291 293 296 298 301 302 302 302 302 302 302 303 305 308 311 314 316 318 320 323 327 331 334 338 341 344 346 347 349 352 355 354 354 354 352 351 349 349 348 349 350 350 349
294 297 299 301 302 303 304 304 305 304 304 306 308 311 314 318 321 324 328 333 338 343 348 351 352 352 353 355 359 3 4 2 4 4 1 359 359 359 359 0 2 2 2
299 301 303 303 304 304 305 306 307 307 307 310 312 316 320 325 328 332 338 344 350 355 358 360 0 2 7 10 11 9 8 8 9 8 8 8 7 6 7 9 10 9 10
301 304 306 307 308 309 310 311 312 313 315 317 320 324 330 335 342 347 353 358 1 4 7 8 9 11 13 14 12 12 13 13 13 14 13 11 10 11 12 13 15 16 17
305 309 311 313 314 315 317 319 320 323 326 328 332 340 347 351 354 360 5 8 9 10 13 16 17 15 14 13 14 14 15 15 15 14 12 13 14 16 18 17 18 19 20
316 319 319 319 321 324 327 330 333 336 341 348 357 2 5 6 7 10 13 15 16 18 20 19 16 15 13 12 12 13 15 16 15 14 14 16 18 20 20 21 21 23 23
330 332 333 335 338 342 344 346 348 353 1 12 17 17 17 17 17 18 19 19 19 20 18 15 14 13 13 13 15 17 18 19 18 18 18 20 22 24 24 24 23 24 26
340 342 345 348 352 355 356 359 5 14 22 26 27 23 23 24 24 23 23 22 22 19 16 14 13 13 15 16 18 20 20 21 22 24 25 26 29 30 31 31 31 30 31
353 355 355 358 3 5 7 14 20 26 28 28 27 26 27 27 26 25 26 25 22 20 18 16 15 16 18 20 20 21 22 22 24 27 29 32 35 36 36 37 37 38 40
6 7 11 16 17 14 18 24 29 31 32 32 31 31 30 29 28 29 29 27 25 23 21 19 19 21 22 22 22 23 23 25 28 31 34 36 38 39 41 42 42 42 45
20 23 25 26 27 30 35 39 39 40 38 37 37 36 34 32 33 32 31 29 25 22 22 22 23 23 23 23 23 24 25 28 32 35 37 40 41 43 44 46 47 47 49
36 35 35 38 40 42 43 43 43 43 41 40 40 38 36 37 37 35 31 27 24 24 25 26 26 26 26 27 26 28 30 32 35 39 42 44 45 46 47 48 50 51 53
46 42 40 41 42 43 44 45 46 45 44 45 45 44 43 41 37 34 30 29 30 31 30 29 30 30 30 30 31 33 35 38 41 44 47 50 51 51 52 53 55 57 59
47 44 44 44 46 47 48 47 48 49 50 51 50 46 42 40 39 37 36 37 37 35 33 34 34 34 34 35 37 39 42 44 47 50 53 55 56 58 58 59 60 62 63
Height
5793 5793 5791 5790 5789 5787 5785 5783 5782 5780 5778 5775 5773 5771 5768 5766 5763 5761 5758 5755 5752 5748 5745 5741 5736 5732 5727 5723 5718 5713 5708 5704 5700 5695 5691 5686 5683 5678 5674 5669 5665 5662 5658
5783 5782 5781 5780 5778 5777 5775 5773 5771 5769 5767 5765 5762 5759 5757 5754 5752 5749 5745 5742 5738 5735 5730 5725 5721 5716 5711 5706 5701 5696 5692 5687 5683 5679 5674 5670 5666 5662 5658 5653 5649 5645 5640
5773 5772 5771 5769 5768 5766 5764 5762 5760 5758 5756 5754 5751 5748 5745 5743 5740 5736 5733 5729 5725 5720 5715 5710 5705 5700 5695 5690 5685 5681 5676 5672 5668 5664 5659 5655 5651 5647 5643 5638 5634 5630 5625
5763 5762 5760 5759 5757 5755 5753 5752 5750 5747 5745 5743 5740 5737 5734 5731 5727 5724 5720 5715 5710 5705 5700 5695 5690 5685 5680 5676 5671 5667 5662 5658 5654 5650 5646 5641 5637 5633 5629 5625 5621 5617 5613
5753 5752 5750 5749 5747 5745 5744 5742 5739 5737 5734 5732 5729 5726 5723 5719 5715 5711 5707 5702 5697 5692 5687 5682 5676 5671 5666 5662 5658 5653 5649 5645 5641 5637 5633 5629 5626 5622 5618 5614 5611 5607 5603
5743 5742 5741 5739 5738 5736 5734 5732 5730 5727 5725 5722 5718 5715 5712 5708 5704 5700 5695 5691 5685 5680 5675 5669 5664 5659 5655 5650 5646 5642 5638 5634 5630 5626 5623 5619 5616 5612 5609 5605 5601 5598 5595
5734 5733 5732 5731 5729 5727 5725 5723 5721 5718 5715 5712 5709 5705 5702 5698 5693 5689 5684 5680 5675 5670 5665 5659 5654 5649 5645 5641 5636 5632 5629 5625 5621 5618 5615 5611 5608 5604 5601 5597 5594 5591 5588
5726 5725 5723 5722 5721 5719 5717 5714 5712 5709 5706 5703 5699 5696 5692 5688 5684 5679 5675 5670 5665 5660 5656 5650 5645 5641 5636 5632 5628 5625 5621 5618 5614 5611 5608 5605 5602 5598 5595 5592 5588 5585 5582
5719 5717 5716 5714 5712 5710 5708 5706 5703 5700 5697 5694 5691 5687 5683 5679 5675 5671 5666 5662 5657 5653 5648 5643 5639 5635 5630 5626 5623 5619 5615 5612 5609 5606 5603 5600 5596 5593 5590 5587 5583 5580 5577
5712 5711 5709 5707 5705 5703 5701 5698 5696 5693 5690 5687 5683 5680 5676 5672 5668 5664 5660 5656 5651 5647 5643 5638 5634 5630 5626 5622 5618 5615 5611 5608 5605 5602 5599 5596 5592 5589 5586 5583 5580 5577 5574
5706 5704 5702 5701 5699 5696 5694 5691 5688 5686 5683 5680 5676 5673 5669 5665 5662 5658 5654 5650 5646 5642 5638 5634 5630 5626 5622 5619 5615 5612 5609 5605 5602 5600 5597 5593 5590 5587 5584 5581 5578 5574 5571
5700 5698 5696 5695 5692 5690 5687 5684 5682 5679 5676 5673 5670 5667 5664 5660 5656 5653 5649 5646 5642 5638 5634 5630 5627 5623 5620 5617 5613 5610 5607 5604 5601 5599 5596 5592 5589 5586 5583 5580 5576 5573 5569
5695 5693 5691 5689 5686 5684 5681 5679 5676 5673 5670 5667 5665 5662 5659 5655 5652 5649 5646 5642 5639 5635 5632 5629 5625 5622 5619 5616 5613 5610 5607 5604 5601 5598 5595 5592 5589 5586 5582 5579 5575 5572 5569
5689 5688 5685 5683 5681 5679 5676 5673 5670 5668 5665 5663 5660 5657 5655 5652 5649 5646 5643 5640 5637 5634 5631 5628 5625 5622 5619 5616 5613 5610 5607 5604 5601 5598 5595 5592 5589 5586 5582 5579 5576 5572 5569
5685 5683 5681 5679 5676 5674 5671 5668 5666 5663 5661 5659 5656 5654 5651 5649 5647 5644 5641 5639 5636 5633 5631 5628 5625 5622 5619 5616 5614 5611 5608 5605 5602 5599 5596 5593 5589 5586 5583 5579 5576 5573 5570
5681 5679 5677 5674 5672 5669 5667 5664 5662 5660 5657 5655 5653 5652 5649 5648 5645 5643 5641 5638 5636 5633 5631 5628 5625 5623 5620 5617 5614 5611 5608 5605 5602 5599 5596 5593 5590 5587 5584 5581 5577 5574 5571
5677 5675 5673 5671 5668 5666 5664 5662 5660 5658 5656 5654 5652 5650 5648 5647 5645 5643 5641 5638 5636 5633 5631 5629 5626 5623 5621 5618 5615 5612 5609 5606 5603 5600 5597 5594 5591 5588 5585 5582 5579 5576 5572
5674 5672 5670 5668 5666 5664 5662 5660 5658 5656 5654 5653 5651 5650 5648 5647 5645 5643 5640 5639 5636 5634 5632 5629 5627 5624 5621 5619 5616 5613 5610 5607 5604 5601 5598 5595 5591 5589 5586 5583 5580 5577 5574
5672 5670 5668 5666 5664 5662 5661 5659 5657 5656 5654 5653 5651 5650 5648 5647 5645 5643 5641 5639 5637 5635 5633 5630 5628 5625 5622 5619 5616 5613 5610 5607 5604 5601 5599 5596 5593 5590 5587 5584 5582 5579 5576
5670 5669 5667 5665 5664 5662 5660 5659 5657 5656 5654 5653 5652 5650 5649 5647 5646 5644 5642 5640 5638 5636 5633 5631 5628 5625 5623 5620 5617 5614 5611 5608 5605 5602 5600 5597 5594 5591 5588 5586 5583 5581 5578
5670 5668 5667 5665 5664 5662 5661 5659 5658 5657 5655 5654 5653 5651 5649 5648 5646 5644 5643 5641 5639 5637 5634 5632 5629 5626 5623 5621 5618 5615 5612 5609 5606 5603 5601 5598 5595 5593 5590 5587 5585 5582 5580
5670 5668 5667 5665 5664 5662 5661 5660 5659 5657 5656 5655 5653 5652 5651 5649 5647 5646 5644 5642 5640 5638 5635 5632 5630 5627 5624 5622 5619 5616 5613 5610 5608 5605 5602 5599 5597 5594 5592 5589 5587 5584 5582
5670 5668 5667 5666 5664 5663 5662 5661 5659 5658 5657 5656 5654 5653 5652 5650 5648 5647 5645 5643 5641 5639 5636 5633 5631 5628 5625 5623 5620 5617 5614 5612 5609 5606 5604 5601 5599 5596 5594 5591 5589 5587 5584
5670 5669 5668 5667 5665 5664 5663 5662 5661 5659 5658 5657 5655 5654 5653 5651 5650 5648 5646 5644 5642 5640 5637 5635 5632 5630 5627 5624 5621 5619 5616 5613 5610 5608 5606 5603 5601 5599 5596 5594 5592 5589 5587
5672 5670 5669 5668 5667 5666 5664 5663 5662 5661 5660 5658 5657 5656 5654 5653 5651 5649 5648 5646 5643 5641 5639 5636 5634 5631 5629 5626 5623 5620 5618 5615 5613 5610 5608 5606 5604 5602 5599 5597 5595 5593 5591
5673 5672 5671 5669 5668 5667 5666 5665 5664 5662 5661 5660 5659 5657 5656 5654 5653 5651 5649 5647 5645 5643 5641 5638 5636 5633 5631 5628 5625 5623 5620 5618 5616 5613 5611 5609 5607 5605 5603 5601 5599 5596 5594